Wind_Speed
11 11 10 9 7 6 4 3 2 2 3 4 5 6 7 8 7 6 5 4 4 4 3 2 1 0 2 3 2 1 3 6 8 8 4 3 5 4 3 2 2 2 2 2 1 2 3 3 2 2 1 1 1 2 1 2 4 2 3 3 1 3 4 4 5 5 4 3 5 11 14 11 4 8 10 7 9 12 11 14 16 15 18 19 17 14 12 10
10 10 9 8 6 5 3 2 1 2 2 3 5 7 7 7 6 6 6 5 5 4 3 2 2 3 5 5 5 4 2 4 7 8 6 6 7 5 3 2 1 1 1 1 2 3 3 2 2 2 1 1 1 1 2 1 4 2 2 2 3 5 4 4 4 5 3 3 8 12 14 12 7 8 9 6 7 10 10 12 16 18 19 20 20 19 17 15
10 9 8 7 5 4 4 3 3 3 3 5 7 7 7 6 6 6 6 6 5 4 2 2 3 5 6 5 6 5 3 3 4 7 7 6 8 6 4 2 1 1 1 1 2 4 4 4 3 2 3 2 1 1 2 1 2 1 2 1 5 6 4 3 5 5 4 3 8 11 11 11 9 8 8 6 6 6 9 14 15 20 24 22 22 21 19 18
9 8 7 6 5 4 3 4 4 4 5 6 7 6 5 4 5 5 5 5 5 4 3 3 4 5 6 2 6 7 5 4 4 6 6 5 6 5 3 2 2 2 1 1 2 2 3 3 2 1 2 2 1 1 1 1 0 1 3 3 5 5 3 5 7 5 4 3 7 10 6 7 9 9 9 7 3 5 13 20 20 22 23 21 23 22 20 19
9 8 8 6 5 3 3 4 3 4 5 6 6 4 3 3 3 4 4 5 4 3 4 4 4 4 4 0 6 8 4 2 4 5 5 4 4 3 2 2 2 1 2 1 3 2 1 0 0 0 1 0 1 1 1 1 1 1 2 4 4 7 3 6 9 6 5 3 6 8 5 5 6 8 13 11 7 10 15 15 14 16 15 15 19 22 22 21
9 9 8 7 6 3 3 3 3 2 3 4 4 3 2 1 2 3 4 5 3 2 5 7 5 3 2 1 4 6 4 1 3 4 4 3 3 2 1 2 2 2 2 1 3 3 1 1 0 1 1 0 0 2 2 1 2 1 3 3 5 7 4 6 9 8 7 5 6 7 5 6 4 7 13 16 19 22 19 11 9 9 8 9 13 18 22 23
9 9 9 9 8 5 3 3 3 2 1 3 3 3 2 1 1 2 4 5 3 2 5 8 7 4 4 2 2 2 3 1 2 2 3 2 2 1 1 2 3 3 2 1 3 3 2 1 1 2 3 1 1 3 2 1 3 3 3 4 6 7 6 7 8 8 8 6 7 7 5 7 7 6 8 17 28 28 23 18 15 12 10 10 11 15 19 21
8 8 9 10 10 7 4 4 4 4 3 1 2 3 3 2 1 2 4 5 4 5 7 8 8 4 5 5 2 1 2 2 2 2 3 2 1 1 1 2 3 3 1 1 2 3 2 1 2 1 2 2 3 3 2 2 2 4 4 5 6 5 7 7 7 9 9 7 7 6 7 11 12 8 10 23 32 27 24 23 20 17 15 15 14 14 15 17
7 7 8 10 10 8 5 4 4 4 3 2 1 1 2 2 2 2 3 4 5 6 7 7 6 3 4 6 5 3 3 2 2 2 3 3 2 1 1 1 1 2 1 0 0 2 2 1 1 1 2 3 4 3 3 1 3 4 5 6 6 5 7 8 8 9 9 8 6 6 8 14 13 9 13 22 20 15 16 18 19 19 19 18 15 13 12 13
5 6 7 7 8 8 6 4 3 3 3 2 2 1 2 3 3 3 3 4 6 6 6 6 4 3 3 4 4 2 3 3 2 3 3 3 2 2 1 1 0 1 1 1 1 0 1 2 2 1 1 3 3 2 3 3 2 3 4 5 4 5 7 8 9 9 7 7 8 7 7 11 8 2 8 11 5 3 7 10 14 17 18 18 15 12 10 10
4 3 4 5 7 8 7 6 4 3 3 3 4 3 3 4 5 5 5 4 6 6 6 5 4 4 4 3 3 2 3 3 2 3 3 3 2 2 2 2 1 2 2 2 1 1 1 1 2 2 2 2 2 2 3 3 2 2 3 2 3 4 7 8 8 9 7 5 8 8 6 7 3 2 10 11 5 4 4 7 12 15 15 15 15 12 10 8
2 1 1 2 5 7 8 7 6 5 5 5 5 4 4 5 6 6 6 4 6 7 7 5 4 5 5 5 4 2 2 2 2 4 3 3 3 2 1 1 0 2 2 2 2 2 2 2 3 3 3 3 2 0 2 3 2 1 2 1 6 5 4 10 9 9 8 3 4 4 4 5 4 9 13 9 6 6 7 7 10 13 12 11 12 11 8 5
0 1 0 1 3 6 7 8 7 6 5 6 5 5 5 6 6 7 6 5 6 6 7 5 4 5 4 5 3 1 2 2 3 5 4 4 2 2 1 2 1 1 1 1 2 2 2 4 4 4 4 3 2 1 2 2 2 0 2 1 3 6 5 8 8 7 7 4 3 4 3 6 6 15 15 8 7 9 11 11 10 12 11 10 10 8 5 4
0 1 1 2 2 5 8 8 7 7 6 6 7 7 7 7 7 7 6 5 6 5 5 4 4 4 4 3 3 3 3 3 3 5 5 5 4 2 1 2 2 1 1 0 1 3 3 4 3 2 3 2 2 3 1 3 2 1 0 2 1 1 5 5 4 8 6 4 6 6 2 7 9 14 12 9 11 12 13 14 13 12 11 10 10 7 4 3
1 1 1 2 3 5 8 8 7 7 8 8 8 8 9 8 8 8 6 5 5 5 5 5 5 6 4 3 4 4 4 3 3 4 5 5 5 5 4 4 2 1 1 1 0 1 2 3 2 1 2 2 3 3 3 4 2 2 0 3 3 3 5 8 3 11 6 2 6 6 2 7 10 11 6 3 9 12 14 15 13 12 10 10 10 7 6 7
1 1 1 2 4 6 9 8 7 9 11 11 10 9 8 8 8 7 5 4 5 5 5 6 7 6 4 4 4 3 4 5 5 5 5 6 6 6 6 6 4 3 3 2 2 1 2 3 2 1 2 2 3 4 4 4 4 3 1 3 3 3 3 6 3 8 7 2 3 5 3 5 7 5 3 3 5 10 15 14 12 12 9 10 10 10 10 10
2 2 2 3 5 7 9 8 7 10 13 12 9 7 7 6 6 5 4 5 6 6 5 6 7 6 4 4 4 4 7 8 7 6 5 6 7 7 7 7 5 5 4 4 4 3 3 2 2 2 0 1 2 4 3 3 4 4 1 2 4 3 3 4 4 4 4 3 4 3 4 7 9 10 5 4 7 12 16 13 10 11 10 13 13 13 12 11
3 4 4 5 6 8 9 8 8 11 12 11 10 7 5 5 5 3 4 6 7 4 3 3 3 3 3 4 5 7 10 10 8 7 5 6 7 8 8 6 4 5 4 4 4 3 3 2 1 0 3 3 2 5 2 4 4 3 4 3 4 3 3 5 4 2 4 3 4 3 5 10 12 16 11 6 7 13 16 12 11 14 16 17 15 15 14 14
4 5 6 7 8 9 9 9 9 11 12 11 11 7 3 6 4 1 5 7 3 1 2 2 2 1 3 6 7 9 11 10 7 5 5 7 8 9 7 4 4 4 2 1 2 3 3 0 1 1 3 3 3 6 7 8 6 4 4 4 4 5 5 6 5 4 5 3 5 7 7 9 12 14 9 8 8 10 13 12 16 19 20 20 20 23 25 25
5 6 7 8 9 10 10 11 11 12 14 14 13 6 3 8 3 0 9 8 6 4 1 2 3 1 4 7 7 9 10 8 5 5 6 8 9 8 5 4 5 3 1 1 2 2 2 1 3 5 7 7 6 7 7 5 5 2 1 2 4 5 6 6 5 5 3 2 6 8 6 9 12 11 10 14 10 6 11 15 19 21 24 27 29 31 29 28
6 7 8 8 8 10 12 12 12 14 16 16 15 10 6 8 3 3 10 6 5 7 2 3 3 2 4 7 8 10 10 6 5 5 6 9 11 7 4 4 4 2 3 1 2 0 2 2 6 7 8 7 5 5 4 2 2 2 1 3 4 4 6 6 3 4 1 1 5 3 3 10 11 8 11 12 3 7 14 18 20 25 29 30 31 30 28 26
6 7 8 7 7 9 11 13 13 14 15 16 17 14 9 8 5 5 8 3 5 6 2 4 4 4 6 6 8 11 10 5 3 5 8 11 10 5 5 5 2 1 4 1 0 3 2 4 7 7 5 3 2 4 4 2 2 2 1 0 4 4 5 5 3 4 2 1 4 5 4 9 10 7 9 7 6 8 13 21 26 30 30 28 30 28 26 24
5 7 7 7 7 8 9 12 14 14 15 17 18 16 11 9 7 8 7 3 3 4 3 4 3 5 6 5 8 12 8 3 3 7 11 11 8 6 5 3 1 2 4 2 2 1 2 4 5 3 1 2 3 4 7 4 2 0 1 1 4 4 2 3 4 5 3 3 4 5 5 6 7 5 7 10 14 17 20 27 28 30 30 28 29 27 25 24
4 6 6 6 7 7 8 11 13 15 16 18 18 16 13 10 8 8 7 1 2 4 4 4 4 5 5 6 10 11 7 3 5 8 11 12 10 7 3 1 2 2 2 2 5 3 5 4 2 3 4 3 2 3 5 3 3 3 4 4 5 4 3 5 4 5 4 3 2 3 4 4 5 5 5 9 17 20 24 28 27 28 30 29 28 26 24 23
4 5 5 6 7 8 8 9 13 16 15 17 17 15 13 10 8 9 6 2 1 4 4 4 4 4 6 8 11 12 7 3 6 7 9 13 12 6 2 1 2 1 3 1 1 3 6 4 3 2 5 5 2 2 1 3 2 5 4 6 6 5 4 4 5 5 4 4 2 4 4 3 5 3 3 6 11 12 16 23 23 25 28 28 28 25 23 22
4 5 5 6 7 9 9 9 13 15 14 16 17 15 13 10 8 7 4 3 2 4 3 3 4 4 7 11 15 13 4 3 8 7 8 14 11 5 3 2 1 1 3 2 2 3 3 2 2 3 4 6 4 2 3 4 2 3 4 5 5 4 2 4 4 3 1 3 3 3 3 3 5 2 1 5 8 8 10 15 17 22 25 26 26 24 22 21
4 6 6 7 8 9 10 10 12 14 14 15 17 16 13 11 9 5 3 4 2 3 3 3 3 3 8 15 16 7 1 7 8 5 11 14 8 5 2 3 2 1 2 2 2 2 2 2 5 5 5 5 3 2 3 5 5 3 4 5 4 2 3 2 1 1 3 3 4 2 4 3 4 4 2 5 9 8 8 9 12 19 24 25 26 24 22 21
5 7 7 8 9 10 11 11 12 13 13 14 16 17 15 12 7 2 3 4 2 3 2 4 4 4 12 16 10 5 2 7 4 5 14 12 6 6 1 1 1 4 2 2 1 4 1 1 2 2 4 2 2 4 4 5 2 5 5 5 2 2 2 3 3 2 2 2 5 3 3 3 4 4 1 6 8 8 7 7 9 16 21 24 25 23 21 21
6 8 9 10 10 10 11 10 11 12 12 14 15 17 16 10 3 2 5 3 2 2 1 4 4 6 16 14 4 7 6 3 3 7 12 8 6 6 1 2 1 3 2 2 4 5 1 0 2 4 2 2 5 5 4 5 3 3 3 2 1 2 1 2 3 2 2 2 4 5 2 2 3 3 3 4 5 6 6 5 8 14 20 23 24 23 21 20
7 8 9 10 10 11 11 10 11 11 12 13 14 17 14 5 2 5 4 0 1 3 3 5 4 6 15 11 3 8 7 2 6 9 8 6 6 8 2 3 1 3 2 3 2 5 2 0 2 3 2 4 3 3 3 4 2 2 3 2 4 4 3 3 2 3 3 2 5 6 3 3 1 2 3 2 3 7 7 6 7 12 20 23 24 23 21 18
7 8 9 11 12 13 12 11 11 12 12 13 14 16 10 2 4 6 2 2 1 4 5 4 4 5 9 6 2 8 6 4 8 9 7 6 6 10 6 1 3 4 4 5 3 5 5 2 1 1 1 1 2 1 2 1 2 3 4 3 4 4 3 3 4 3 3 4 6 4 3 4 1 3 2 1 2 5 7 8 7 10 17 22 24 23 19 16
9 10 11 12 13 13 12 12 12 13 13 12 14 13 4 2 4 2 1 4 2 3 3 2 3 5 5 3 2 5 4 5 7 6 3 3 4 5 5 2 2 4 4 3 4 6 4 1 2 3 1 1 2 2 4 4 5 4 3 4 3 4 3 3 3 1 2 4 3 1 1 2 2 3 2 4 5 6 9 12 13 14 18 22 25 22 18 15
10 10 11 12 12 12 12 12 13 13 12 12 13 8 4 5 2 1 3 3 1 2 2 2 3 4 4 4 4 5 3 3 6 5 1 2 4 2 3 2 1 2 3 2 2 6 4 3 3 3 1 1 3 2 4 3 3 3 1 2 2 1 3 4 4 2 3 4 3 2 2 1 1 2 4 5 7 11 16 19 19 21 22 24 25 23 19 16
9 8 9 10 10 11 11 11 12 11 11 11 9 4 7 4 1 1 2 3 2 3 2 1 4 5 4 2 2 4 2 2 5 6 4 3 4 3 4 5 5 3 1 2 2 2 2 4 3 1 1 1 1 0 1 1 1 2 3 3 2 2 1 4 4 2 4 4 4 4 2 1 2 2 3 5 10 16 20 20 21 22 22 23 25 25 21 16
7 7 8 8 8 8 9 11 11 10 10 9 5 5 5 0 2 1 2 4 3 4 4 2 3 4 4 3 3 2 2 2 4 5 4 3 3 1 2 4 5 4 2 3 3 1 1 4 5 2 1 1 0 1 2 2 2 2 1 2 1 3 3 2 3 4 2 3 4 2 0 1 3 2 3 7 11 14 15 17 19 20 19 21 22 23 22 16
6 6 6 6 7 8 10 11 10 10 9 5 5 5 2 1 1 1 1 3 2 3 6 5 5 4 4 4 4 4 2 1 4 5 3 2 1 1 1 2 2 3 3 1 2 1 1 5 5 3 2 1 1 2 0 1 1 0 1 1 4 4 5 1 3 2 3 1 3 1 4 2 3 3 2 6 8 8 9 12 16 16 17 19 20 20 21 16
5 4 4 5 8 10 10 10 9 8 8 5 6 2 2 1 0 2 1 3 2 1 3 4 3 3 3 3 4 5 4 2 3 4 3 2 2 1 1 1 1 1 2 2 2 2 1 5 5 2 2 2 0 2 2 1 1 1 2 4 3 1 4 3 1 3 4 1 4 1 4 4 4 4 0 4 6 5 5 8 12 15 16 17 18 19 20 15
5 2 4 8 10 10 9 9 8 6 6 8 5 2 1 0 1 2 3 3 2 1 4 2 2 2 1 2 3 5 5 4 4 4 3 2 1 1 1 1 1 1 1 1 1 1 0 4 6 1 2 4 2 1 3 3 0 2 3 3 1 0 1 1 0 1 2 2 3 4 1 3 3 2 2 3 4 3 4 6 9 11 13 14 16 18 18 12
4 2 5 11 11 10 9 7 6 6 7 7 3 1 0 0 1 2 4 3 1 1 3 0 2 2 2 1 2 4 3 2 3 3 1 1 2 1 2 1 1 1 2 1 2 2 1 1 5 4 3 3 3 2 1 4 3 1 1 3 1 3 3 1 1 2 2 2 2 3 3 0 1 1 4 4 2 4 5 5 6 9 12 13 17 19 15 10
4 2 6 12 11 9 7 6 9 10 7 3 2 1 1 1 2 4 4 3 2 2 1 0 0 2 3 2 1 2 2 1 2 1 1 1 2 1 2 1 1 3 4 1 1 1 1 1 4 5 4 3 3 1 3 3 2 1 1 2 2 1 1 1 1 2 2 2 2 2 4 3 1 1 5 5 4 5 6 5 5 8 11 14 18 15 10 10
4 2 7 12 10 7 6 7 10 8 4 2 2 1 2 2 3 4 4 3 2 2 1 1 1 0 1 2 2 2 2 2 1 1 2 1 1 1 1 1 0 3 4 3 2 1 1 1 3 4 4 3 5 4 4 5 4 3 2 2 2 1 1 1 4 2 1 2 4 1 4 5 1 2 3 5 5 6 7 6 5 8 10 14 15 10 9 11
6 3 8 13 9 5 8 8 7 4 4 3 2 2 2 2 2 4 4 4 2 2 1 1 1 0 1 1 2 1 2 2 2 1 2 2 2 2 1 2 1 1 2 2 2 1 1 1 1 4 5 6 8 5 2 4 3 4 2 1 2 1 1 2 5 4 2 1 2 2 2 3 1 2 5 7 8 7 7 6 5 7 11 13 10 7 10 10
8 6 10 14 9 5 8 6 5 5 4 2 1 2 2 2 2 3 3 4 2 2 3 1 0 1 1 1 1 1 2 2 3 3 2 3 3 2 1 2 2 1 1 1 2 2 1 1 1 4 5 5 7 5 2 1 2 2 1 1 1 1 1 4 4 2 1 3 1 1 2 2 2 3 7 9 9 6 4 4 6 9 12 10 6 7 11 10
9 9 13 16 11 5 7 4 2 3 2 1 2 3 3 2 3 2 2 3 3 1 1 0 1 1 1 1 1 2 2 2 3 2 1 2 2 1 1 1 2 1 1 0 1 3 2 1 1 4 6 6 6 6 5 4 2 1 3 1 1 1 3 2 1 2 1 3 2 2 4 1 3 4 6 7 4 2 2 4 7 11 11 7 6 10 12 12
5 6 11 17 17 13 9 4 4 4 1 2 3 3 3 2 3 3 1 2 2 1 0 1 2 2 2 1 1 3 2 2 3 2 3 2 3 1 1 2 3 1 0 1 1 2 1 2 1 1 3 5 5 5 4 3 3 2 4 3 2 2 2 2 1 2 1 3 1 2 2 0 4 4 3 3 1 1 2 5 11 13 10 7 10 13 14 16
3 3 5 11 19 21 16 9 6 4 3 3 3 3 3 2 2 3 2 1 3 2 1 2 2 2 2 3 3 3 3 2 3 3 3 3 4 1 1 3 3 2 1 2 2 1 1 1 2 4 6 6 6 7 4 2 4 6 7 8 6 3 0 3 2 1 2 1 0 1 1 2 2 3 1 2 1 2 5 9 15 17 13 11 13 14 16 18
4 3 2 4 9 14 14 14 11 6 2 2 2 2 3 3 3 3 2 1 3 4 1 1 2 1 1 4 3 3 4 3 2 3 3 3 4 3 4 3 2 3 3 2 1 2 3 2 3 4 8 8 6 9 7 4 5 5 5 8 8 5 1 5 2 2 1 0 2 1 4 5 2 1 4 5 3 4 8 12 17 20 16 14 16 17 18 19
5 3 3 4 3 3 5 9 11 10 6 3 2 1 2 4 4 2 2 3 3 3 2 2 3 2 1 1 1 2 4 4 3 3 2 3 3 5 6 3 3 4 4 2 2 3 3 3 4 2 6 9 8 9 8 4 3 2 4 6 6 5 3 5 2 2 2 1 3 2 5 6 3 4 5 5 4 7 11 14 18 21 17 15 18 19 18 19
8 7 6 7 5 2 3 2 5 10 9 5 3 2 2 3 5 2 2 2 3 3 3 2 5 4 2 2 1 2 3 3 5 5 2 2 3 3 4 3 2 5 5 3 2 2 3 3 3 1 5 10 10 8 4 1 0 3 5 6 5 5 5 4 2 2 3 2 3 5 8 6 1 2 4 5 7 12 16 17 21 24 20 17 20 20 19 20
8 7 6 9 8 5 5 3 2 5 6 4 3 2 1 1 4 4 2 0 2 3 2 1 7 7 4 2 2 4 5 4 5 7 2 1 3 1 1 2 1 5 6 3 1 2 2 2 2 2 3 8 8 6 4 2 2 3 5 6 6 5 5 4 2 3 4 3 4 7 9 5 2 4 8 11 12 15 18 20 24 24 20 17 19 19 17 20
10 9 8 9 6 5 5 3 2 3 3 4 3 1 2 1 2 4 3 3 3 3 2 3 6 5 3 2 2 6 8 6 8 10 6 4 5 3 2 1 1 4 5 2 1 2 2 2 3 5 3 6 5 5 8 5 4 5 5 6 6 5 4 2 3 2 1 4 6 7 7 3 3 8 12 12 14 16 18 21 25 23 17 15 15 15 15 21
10 10 9 8 4 5 5 4 4 4 2 2 1 1 2 3 3 2 2 4 5 4 4 4 3 3 3 4 5 7 11 11 12 14 13 11 10 9 9 8 5 3 2 1 2 1 2 1 2 3 2 6 5 6 8 5 3 2 4 4 2 2 4 5 6 3 1 2 4 5 4 3 5 9 10 10 14 15 17 21 24 19 13 12 15 18 21 25
Wind_Direction
96 95 96 97 100 107 114 113 87 49 45 74 109 115 112 108 95 84 77 72 68 63 77 86 108 163 259 237 231 263 45 46 31 20 23 66 54 56 70 82 94 79 65 57 81 127 151 173 178 139 174 180 202 252 130 30 24 50 104 92 258 202 200 195 187 192 169 215 214 201 196 188 213 209 208 224 226 231 233 227 225 225 226 234 244 249 256 251
95 94 93 94 96 101 108 104 75 35 55 99 120 122 116 104 86 72 62 51 48 44 53 31 355 335 294 251 228 245 314 11 15 12 20 46 43 39 35 43 85 55 59 47 58 88 117 140 148 122 57 86 159 223 177 3 34 78 106 103 232 206 202 202 194 194 170 228 207 200 205 203 221 213 205 225 236 231 238 238 229 230 230 232 240 245 250 247
91 88 85 84 86 92 98 91 82 79 96 115 122 124 115 101 85 69 58 47 34 25 24 2 354 345 326 269 218 215 257 311 346 359 10 30 25 16 8 347 327 302 266 48 81 88 91 90 87 85 42 69 129 207 176 22 39 95 102 153 244 212 198 216 209 203 203 244 197 195 214 216 231 222 202 218 245 244 234 239 229 229 235 234 238 240 243 241
84 80 76 71 74 84 96 93 88 93 107 120 124 121 111 97 79 61 50 36 18 12 3 349 348 348 348 293 197 199 233 277 309 346 3 20 12 2 359 340 314 284 254 129 127 114 88 75 60 33 24 65 126 183 177 21 338 179 137 197 233 182 188 223 205 212 217 231 201 198 207 224 242 230 213 206 230 267 243 244 243 242 247 242 239 237 235 234
78 73 67 61 66 80 103 104 99 104 117 131 133 126 105 86 57 41 29 18 13 25 8 347 336 333 352 108 192 207 235 314 312 330 357 9 1 353 5 346 309 298 259 182 166 174 142 96 281 321 357 227 117 124 185 62 132 186 202 217 194 156 192 228 202 216 223 214 207 194 181 223 239 227 224 207 199 249 249 254 258 254 257 253 246 239 231 227
76 69 61 54 51 64 101 107 102 113 138 155 157 159 130 81 41 25 10 7 9 25 4 353 338 302 305 201 194 215 226 304 307 322 354 356 348 326 345 334 319 317 285 238 193 195 204 236 210 148 136 156 155 184 184 156 167 218 264 227 188 183 211 218 199 214 223 207 195 187 205 230 229 247 245 227 231 250 255 262 273 265 252 249 249 238 230 226
79 70 60 52 45 47 69 78 75 82 138 185 191 196 198 207 37 16 3 3 346 296 334 346 341 296 233 216 171 202 213 250 311 340 353 338 325 291 301 325 323 314 282 230 195 192 213 194 132 132 120 94 215 198 183 225 190 177 246 220 200 214 224 216 204 212 218 214 209 200 230 243 231 254 266 247 249 257 259 259 264 266 255 249 251 240 234 233
82 73 62 54 49 48 52 56 53 56 70 140 194 208 221 234 245 0 6 4 336 300 312 331 338 309 230 220 231 258 249 314 347 0 353 342 308 289 313 319 314 310 266 187 186 192 225 175 113 139 146 162 187 185 183 261 237 177 218 214 194 220 225 218 215 221 223 225 231 228 245 250 246 261 278 267 267 269 263 258 256 255 255 254 253 244 234 233
82 73 64 55 50 48 48 43 39 46 52 62 109 201 226 244 262 334 0 358 337 314 312 321 326 311 224 218 244 271 266 290 340 341 349 359 330 314 323 300 307 313 298 40 179 204 237 183 138 171 199 196 176 177 157 160 256 206 196 195 190 221 220 217 224 224 227 231 233 238 256 260 262 280 279 275 280 279 262 251 245 244 248 250 247 238 228 228
83 70 63 54 46 41 36 26 15 14 13 12 7 316 250 268 285 319 335 340 333 319 320 319 300 279 236 227 246 269 266 248 266 308 327 344 334 340 321 284 191 106 72 33 28 295 226 197 215 220 210 192 164 175 162 153 224 192 170 185 201 231 224 220 230 227 224 238 234 224 253 266 271 291 264 275 319 305 252 231 226 228 236 243 243 237 224 229
84 67 61 51 41 32 25 17 359 345 339 330 327 315 291 291 291 304 314 323 324 315 319 315 277 259 257 269 275 250 247 237 254 292 312 328 311 304 297 261 192 98 70 38 41 14 332 247 245 236 236 214 173 191 214 200 183 150 147 217 291 275 238 227 228 228 214 240 243 226 258 272 254 206 244 263 294 272 237 210 209 212 222 232 241 244 235 240
78 47 55 44 35 29 21 14 2 344 332 329 327 319 309 302 296 299 298 304 316 312 314 310 267 258 266 288 296 264 237 231 271 291 304 316 283 265 291 281 262 97 69 33 29 11 341 292 260 244 238 203 180 85 225 197 150 129 118 255 308 353 283 236 222 218 197 212 243 207 303 292 202 218 241 259 267 233 211 210 207 205 211 219 231 237 234 242
296 299 264 320 15 22 14 6 359 346 331 328 324 321 320 316 312 305 291 293 308 308 313 308 267 266 284 292 296 292 269 256 280 293 301 314 294 260 300 325 320 86 72 44 4 337 306 286 261 236 222 193 184 149 174 150 115 318 89 118 312 2 320 243 209 192 180 204 202 135 306 288 238 234 245 265 246 215 213 223 214 204 204 210 221 218 212 214
274 236 255 284 326 355 357 352 350 348 335 326 319 312 311 314 317 313 301 294 298 303 308 300 266 275 296 290 286 302 301 294 289 293 301 311 314 300 295 327 335 8 348 98 341 303 285 289 270 220 197 169 161 157 78 20 61 347 8 41 357 313 294 282 188 161 157 218 188 136 245 267 268 262 265 263 237 218 224 229 213 202 203 208 209 192 172 158
322 271 271 278 305 332 342 341 346 353 345 329 316 307 304 307 310 312 310 298 297 301 290 278 276 288 298 287 286 300 309 308 300 306 313 314 321 321 320 323 316 300 271 223 194 291 294 284 251 180 152 136 116 116 17 349 0 36 240 309 331 188 263 307 221 171 169 204 171 146 236 263 273 282 302 253 221 218 234 237 211 198 202 211 205 174 144 129
357 346 334 316 322 330 335 339 348 353 347 334 318 307 301 302 306 311 314 307 308 299 273 261 272 285 297 297 291 297 320 325 325 326 327 329 329 327 326 321 299 271 261 242 208 202 293 283 247 219 165 155 112 94 35 359 334 355 149 251 266 202 267 314 280 200 191 155 175 186 229 276 273 272 31 62 227 224 237 240 207 199 205 199 186 158 135 128
27 26 18 0 348 343 345 352 356 352 351 348 341 322 304 305 315 322 325 317 316 299 264 246 266 283 288 295 296 300 320 326 326 324 327 334 331 328 324 318 299 275 277 272 251 242 265 259 216 236 132 97 106 94 40 334 302 319 349 256 246 221 259 298 307 253 177 159 239 218 223 258 269 270 295 328 269 236 235 235 196 187 175 159 160 157 146 143
36 39 31 18 6 2 7 10 1 358 360 1 2 348 321 326 325 329 349 329 317 291 244 250 283 287 278 310 327 317 320 319 314 316 319 328 333 333 325 321 312 284 288 286 254 221 222 222 154 262 1 9 87 114 152 239 221 252 261 267 281 277 252 252 278 252 152 171 239 233 251 254 270 278 287 312 271 236 234 223 170 157 148 146 152 148 136 128
44 43 35 27 23 23 25 18 9 9 11 11 8 1 346 348 330 280 1 352 359 113 215 310 353 167 263 315 332 323 322 317 308 312 317 332 338 330 325 327 323 299 295 307 239 178 169 156 62 350 305 285 222 169 195 210 187 212 234 220 257 274 264 247 262 246 173 169 238 233 252 260 272 278 292 314 279 236 225 187 147 141 138 138 131 119 113 110
49 43 35 33 38 39 36 28 20 17 18 20 16 19 26 3 3 238 353 11 56 47 319 319 344 280 296 319 329 329 330 319 302 313 325 339 340 328 317 317 326 317 281 196 213 196 146 255 254 242 247 245 235 204 197 192 160 151 200 214 253 258 275 267 276 286 179 161 254 240 248 266 270 275 297 302 284 211 177 150 129 126 127 125 118 110 108 106
48 40 35 38 44 41 38 33 28 24 21 21 22 36 45 17 29 330 343 5 29 7 354 346 335 310 333 333 335 340 338 323 308 325 335 336 336 329 307 327 359 336 301 217 196 81 101 243 245 235 231 222 214 186 170 159 115 57 205 247 288 250 263 266 253 299 345 142 268 284 290 274 278 293 311 307 280 141 147 137 118 117 120 118 114 110 109 107
41 39 39 40 41 36 35 32 30 28 23 21 24 35 42 31 33 356 345 325 339 358 6 345 332 324 340 340 343 345 339 331 325 338 339 331 332 322 307 351 46 251 318 3 256 358 10 258 254 245 226 177 84 82 80 64 96 59 120 265 298 260 277 293 290 315 0 155 269 321 320 288 297 308 327 354 92 108 122 125 119 118 116 113 113 110 108 103
37 41 44 40 34 29 28 27 25 24 23 22 21 26 28 22 17 3 355 313 329 8 4 341 336 339 348 349 342 342 342 348 336 338 348 352 356 340 320 354 17 279 345 34 149 0 317 263 265 266 168 106 0 35 69 53 32 280 218 255 274 280 318 285 302 318 294 226 257 307 309 298 317 332 2 40 82 88 102 112 112 113 111 108 107 102 97 92
36 41 45 40 29 20 16 16 16 17 18 17 15 15 15 8 1 357 357 340 324 356 4 355 355 1 4 351 340 339 337 333 332 341 359 8 5 345 317 354 0 334 338 87 131 192 254 262 312 11 61 91 290 354 59 60 336 289 224 215 245 269 249 229 281 316 306 307 299 338 336 319 341 5 23 52 78 84 99 104 99 102 104 100 96 91 90 87
27 26 28 26 20 9 4 4 8 10 10 8 6 5 5 359 348 349 358 65 347 332 354 358 355 7 2 353 343 333 316 316 351 355 3 2 358 347 330 351 11 333 279 265 92 268 264 289 334 29 48 66 106 320 307 185 294 312 240 208 212 220 235 262 319 343 354 334 314 24 16 306 327 13 61 58 70 74 88 94 93 97 94 89 88 87 87 86
10 4 2 3 5 1 359 1 4 4 3 2 358 356 358 349 343 344 2 71 22 318 340 354 351 354 356 353 343 334 315 340 355 1 3 356 356 5 344 330 42 323 277 274 322 284 262 334 28 104 77 61 67 313 255 166 115 315 248 190 177 176 236 302 348 7 343 274 277 63 113 253 311 320 141 69 77 77 77 84 91 92 85 80 81 82 84 85
358 352 347 347 350 352 357 359 357 358 1 357 348 348 350 344 338 328 3 47 6 315 326 336 346 352 351 347 343 350 316 326 340 358 359 356 357 10 328 314 11 283 293 25 2 288 227 2 31 68 69 62 48 295 237 139 120 254 232 148 148 210 277 277 104 194 234 267 310 12 145 199 295 275 236 90 93 83 76 83 88 87 80 74 74 77 80 80
350 346 341 341 342 344 350 348 347 354 357 348 341 342 344 341 330 309 75 74 327 329 337 324 341 349 347 345 356 46 348 324 355 343 345 354 357 4 354 241 223 243 296 82 250 276 223 342 348 87 64 33 245 234 192 143 152 254 210 155 189 260 248 189 162 226 264 5 318 297 144 161 267 274 52 87 101 102 103 101 91 86 78 71 72 73 76 77
341 342 339 337 337 340 342 340 342 347 346 342 336 335 340 342 327 80 77 99 301 353 5 337 341 333 347 353 33 38 4 346 17 328 338 359 357 1 0 255 226 213 299 129 208 266 289 212 219 143 125 254 234 232 194 165 230 265 159 146 8 45 87 125 142 170 40 29 270 261 178 143 273 256 126 91 111 134 131 107 94 89 77 68 67 69 71 74
333 338 338 337 337 337 337 336 337 337 336 336 330 331 340 353 83 70 42 310 323 342 313 338 334 328 354 5 13 6 9 355 348 342 353 19 17 19 38 256 4 106 0 8 233 261 293 133 166 130 192 219 205 239 211 180 259 9 68 13 3 31 43 50 78 92 58 313 253 254 213 131 306 253 162 150 169 157 137 113 98 85 74 65 61 62 65 70
326 334 336 335 334 331 330 329 328 329 329 327 325 331 342 10 73 81 65 275 317 337 341 347 332 350 11 23 329 345 356 334 349 7 7 13 25 20 31 18 8 38 11 356 331 304 343 49 213 316 282 194 84 328 283 0 12 53 61 26 359 341 15 28 354 45 84 262 262 259 198 141 174 268 296 344 130 130 124 122 113 87 72 61 56 59 66 72
324 330 331 331 329 328 328 325 324 325 325 324 326 331 352 50 29 85 268 318 335 332 344 316 321 356 7 10 330 329 335 325 350 29 24 15 43 20 31 67 354 8 358 332 327 330 338 226 283 325 325 96 73 0 332 1 38 47 35 43 23 334 1 0 312 325 195 246 265 284 115 139 215 259 342 36 67 90 110 115 107 92 75 60 54 57 63 65
324 329 330 329 329 330 330 329 331 331 327 328 327 333 70 79 24 236 281 326 355 326 324 284 315 347 357 9 348 323 325 317 344 12 6 42 66 38 14 34 65 30 324 287 342 347 330 304 330 349 327 42 92 43 331 329 18 1 316 95 87 21 4 305 277 290 280 261 265 306 6 308 249 16 29 58 76 92 105 104 95 85 73 61 53 53 53 49
332 336 332 329 331 333 336 340 341 340 336 334 334 15 67 66 256 296 313 277 288 335 343 314 322 344 24 43 327 330 351 312 345 8 355 24 47 8 344 352 16 46 357 334 355 352 346 311 311 343 313 10 79 165 205 201 309 278 208 140 141 155 171 261 243 240 275 283 290 299 309 225 163 65 32 73 83 92 102 100 89 79 67 59 51 46 43 38
338 337 331 331 336 341 348 350 346 347 343 339 8 62 77 103 260 338 303 269 295 327 315 326 11 15 8 334 302 9 57 301 340 11 3 30 57 8 353 338 349 33 58 11 324 242 117 269 267 301 301 144 65 236 150 80 338 260 162 95 175 183 161 223 215 202 247 325 312 276 208 31 108 98 28 64 75 82 93 92 84 73 60 54 46 37 33 31
330 330 335 344 353 358 359 350 347 351 346 357 55 63 116 198 254 168 244 304 330 316 319 346 40 37 344 320 325 3 57 282 333 359 349 21 69 5 6 297 316 33 72 68 296 322 10 275 282 346 344 104 100 249 236 36 314 281 78 243 236 184 134 137 270 312 36 12 286 198 123 99 110 123 17 49 65 60 67 78 76 65 53 47 38 27 23 25
322 333 2 11 8 5 359 353 355 357 1 45 82 90 210 198 179 194 291 326 295 307 15 7 8 16 332 312 314 331 353 338 339 0 336 333 23 357 348 296 271 28 81 138 261 277 231 274 298 356 305 296 275 269 320 25 142 132 236 249 256 132 96 95 266 345 11 260 271 266 151 172 158 151 105 44 55 34 37 67 67 54 45 36 27 18 13 16
333 4 30 12 6 1 2 5 1 9 42 64 82 110 174 108 272 271 325 340 293 357 62 45 316 21 23 318 293 307 339 347 339 357 340 323 358 82 69 352 275 341 41 82 261 273 179 284 301 314 240 282 325 345 332 329 290 161 223 251 48 114 314 10 139 304 323 273 286 306 231 175 171 163 125 57 47 37 37 60 61 46 35 26 15 6 5 15
356 60 25 6 4 8 15 19 16 42 66 67 77 110 51 2 349 349 350 357 351 57 62 2 301 7 14 0 294 301 334 349 326 344 6 345 341 69 103 83 279 334 5 70 187 263 26 280 288 285 249 287 351 26 318 309 324 23 321 314 44 169 195 208 180 183 225 262 267 311 327 131 235 204 135 109 68 57 44 54 60 36 25 16 3 357 2 19
9 81 22 7 8 15 24 42 51 60 69 77 137 160 6 354 351 7 12 4 22 63 40 272 328 348 331 343 328 304 325 306 298 309 244 283 331 344 78 94 292 321 332 8 139 291 357 196 263 289 308 324 328 271 197 225 275 4 13 314 302 282 249 281 280 153 147 222 214 297 300 262 280 141 130 103 69 58 49 60 53 25 16 5 355 355 10 24
26 78 12 5 9 19 47 61 50 58 78 72 87 64 15 17 356 8 19 15 33 64 102 163 139 218 268 324 313 286 318 308 283 260 256 285 358 322 351 81 122 318 344 17 32 326 322 202 248 294 324 304 270 254 191 181 183 160 171 209 205 238 337 307 292 303 71 184 187 208 281 263 275 103 118 91 84 71 60 65 37 10 359 351 350 1 19 17
57 69 7 9 13 34 74 68 33 41 88 65 43 37 26 16 3 12 17 21 37 35 47 124 139 165 189 250 279 273 317 296 253 248 250 235 213 219 255 22 355 307 17 358 302 276 138 109 277 282 275 267 281 293 167 166 157 148 173 158 145 146 119 202 259 281 320 279 184 161 274 262 236 91 94 91 90 79 69 64 32 358 345 345 349 6 9 6
66 59 22 21 23 57 81 63 7 24 59 80 111 59 40 45 22 7 9 19 23 2 13 38 218 11 222 227 277 284 294 265 227 224 251 250 242 229 238 6 2 0 53 330 303 351 32 89 0 289 281 295 310 334 53 81 88 110 303 9 151 281 120 173 214 203 205 269 247 210 270 238 164 95 92 95 90 83 72 48 19 347 340 346 350 356 1 360
73 59 38 30 29 68 89 77 50 47 7 10 77 39 25 55 45 19 358 7 8 15 38 340 236 355 291 219 175 238 263 291 254 252 285 254 250 282 290 29 26 33 56 340 323 1 337 261 17 326 321 337 342 352 354 342 26 32 295 333 108 10 51 127 174 70 179 248 195 200 265 227 142 114 97 96 87 88 84 36 2 341 338 343 344 351 357 354
81 61 44 40 47 70 83 89 115 113 84 47 50 16 5 30 32 28 7 354 8 26 178 299 269 271 300 311 301 279 269 238 253 305 359 296 275 326 53 353 357 3 273 248 285 335 291 230 82 14 307 310 314 314 313 311 320 300 297 329 5 349 334 253 239 63 256 259 155 172 256 151 138 134 95 69 23 334 11 1 346 342 341 336 342 351 354 352
82 58 30 37 51 63 68 65 77 107 124 81 50 14 19 7 339 4 7 0 9 356 287 286 288 278 333 10 353 308 293 237 247 307 340 286 276 320 3 333 354 16 350 316 305 0 70 276 220 187 219 247 262 269 279 334 305 294 311 322 317 307 218 130 121 198 208 231 326 180 331 330 183 157 15 352 40 354 345 345 344 344 343 339 345 349 349 350
70 43 357 24 44 53 55 48 49 68 118 101 80 16 358 330 310 353 8 336 357 353 321 266 354 13 0 3 358 295 294 308 279 281 286 263 265 306 333 344 24 19 17 27 340 76 77 315 268 214 237 254 260 274 295 325 293 292 331 319 303 303 60 109 105 277 236 2 278 320 16 332 291 76 0 344 24 6 343 343 343 341 338 340 347 346 345 349
76 87 65 65 50 34 43 34 39 57 62 71 100 48 350 348 351 4 328 322 346 11 25 349 347 30 169 313 352 292 307 328 298 268 282 302 315 335 340 7 63 26 22 29 358 88 116 267 263 215 271 280 279 280 288 291 279 12 22 332 321 348 46 92 94 339 7 281 259 318 339 314 327 26 356 347 12 352 337 337 339 340 339 342 346 346 347 351
91 100 74 75 94 107 87 30 39 59 50 38 67 52 20 14 2 318 259 333 341 358 38 349 306 319 288 236 190 256 292 322 308 291 275 310 330 344 326 318 45 27 20 11 339 68 117 259 260 207 292 295 293 294 299 284 229 51 25 355 10 55 76 94 103 7 352 275 255 318 315 304 9 44 343 339 344 340 337 337 341 342 341 342 347 348 348 349
96 103 94 94 89 64 53 26 39 68 40 23 54 37 16 46 347 309 256 99 330 326 31 321 298 308 302 250 180 221 242 234 262 270 242 319 319 296 271 267 283 0 6 14 337 27 74 274 291 66 337 299 301 319 341 14 109 86 28 12 25 43 54 57 31 8 356 307 297 316 312 305 67 31 350 336 335 339 341 340 340 339 339 343 348 348 348 346
95 104 112 106 75 20 25 25 42 83 37 13 39 3 343 1 307 307 274 222 227 264 289 295 304 314 327 327 219 245 270 267 259 267 270 275 271 245 244 284 355 349 349 5 337 3 46 299 345 47 5 289 301 340 328 336 92 89 20 6 14 26 36 7 323 322 291 292 302 310 314 312 357 353 341 335 338 342 341 338 333 332 338 346 346 348 349 344
97 105 110 107 78 7 13 21 33 66 62 332 346 296 304 304 301 331 319 259 245 261 280 296 315 320 325 322 296 289 302 301 285 283 284 275 263 255 260 279 307 307 278 355 347 342 74 12 328 26 336 278 291 317 313 331 59 19 324 335 342 26 29 350 328 319 280 292 295 301 315 318 324 331 332 338 344 341 336 330 325 327 341 348 347 351 348 342
Height
1547 1547 1547 1547 1547 1547 1547 1547 1546 1546 1546 1546 1545 1545 1545 1545 1545 1545 1544 1544 1544 1544 1543 1542 1542 1541 1540 1539 1539 1538 1537 1537 1536 1536 1536 1535 1535 1534 1534 1534 1534 1534 1533 1533 1533 1532 1532 1532 1532 1532 1532 1532 1532 1532 1532 1532 1532 1532 1535 1539 1539 1540 1538 1535 1536 1536 1535 1534 1534 1534 1534 1535 1535 1535 1535 1535 1535 1534 1534 1534 1534 1534 1534 1534 1534 1535 1535 1536
1548 1548 1548 1548 1547 1547 1547 1547 1547 1546 1546 1546 1546 1546 1546 1545 1545 1545 1545 1544 1544 1543 1543 1542 1541 1541 1540 1539 1538 1538 1537 1537 1536 1536 1536 1535 1534 1534 1534 1534 1534 1534 1533 1533 1532 1532 1532 1532 1532 1531 1531 1531 1532 1532 1532 1532 1532 1533 1537 1539 1537 1537 1535 1533 1534 1534 1534 1533 1532 1533 1534 1534 1534 1534 1534 1534 1533 1533 1533 1532 1533 1533 1532 1533 1533 1534 1534 1535
1549 1549 1548 1548 1548 1547 1547 1547 1547 1546 1546 1546 1546 1546 1546 1546 1545 1545 1545 1544 1544 1543 1542 1541 1541 1540 1539 1538 1538 1538 1537 1537 1537 1536 1536 1535 1534 1534 1534 1533 1533 1533 1533 1533 1532 1532 1531 1531 1531 1531 1531 1531 1531 1531 1532 1532 1532 1533 1536 1537 1534 1534 1533 1533 1533 1533 1533 1532 1532 1533 1533 1533 1533 1533 1534 1533 1532 1533 1531 1529 1530 1530 1530 1531 1532 1532 1533 1533
1550 1549 1549 1549 1548 1548 1547 1547 1547 1546 1546 1546 1546 1546 1546 1546 1545 1545 1544 1544 1543 1543 1542 1541 1540 1539 1538 1537 1537 1538 1537 1537 1537 1536 1536 1535 1535 1534 1534 1533 1533 1533 1532 1532 1532 1531 1531 1531 1531 1530 1530 1531 1531 1531 1532 1532 1532 1533 1534 1534 1532 1533 1533 1532 1532 1533 1532 1532 1532 1532 1533 1533 1532 1533 1532 1532 1533 1531 1528 1526 1527 1527 1528 1530 1530 1530 1531 1532
1550 1550 1549 1549 1549 1548 1548 1547 1547 1547 1546 1546 1546 1546 1546 1546 1545 1545 1544 1544 1543 1542 1542 1541 1540 1540 1539 1538 1538 1538 1538 1538 1537 1536 1536 1535 1535 1534 1534 1533 1533 1532 1532 1532 1531 1531 1531 1531 1530 1530 1530 1530 1531 1531 1532 1532 1532 1533 1533 1532 1532 1532 1533 1531 1532 1532 1532 1532 1532 1532 1533 1532 1532 1532 1531 1531 1531 1527 1524 1525 1525 1526 1527 1528 1528 1528 1529 1530
1551 1550 1550 1549 1549 1548 1548 1548 1547 1547 1547 1546 1546 1546 1546 1546 1545 1545 1544 1544 1543 1542 1542 1541 1540 1540 1539 1538 1538 1538 1538 1539 1537 1536 1536 1535 1535 1534 1533 1533 1533 1532 1532 1531 1531 1531 1531 1530 1530 1530 1530 1531 1532 1531 1532 1532 1532 1532 1532 1532 1532 1532 1532 1531 1531 1532 1531 1532 1531 1532 1532 1532 1532 1530 1529 1529 1525 1522 1523 1525 1525 1525 1526 1527 1527 1527 1527 1528
1551 1551 1550 1550 1549 1548 1548 1548 1547 1547 1546 1546 1546 1546 1546 1545 1545 1545 1544 1544 1543 1542 1541 1541 1540 1540 1539 1539 1539 1538 1538 1538 1536 1536 1535 1535 1535 1534 1533 1533 1533 1532 1532 1531 1531 1531 1530 1530 1530 1530 1531 1531 1532 1531 1532 1532 1532 1532 1531 1531 1531 1531 1531 1530 1531 1531 1531 1531 1531 1532 1531 1531 1531 1530 1529 1525 1520 1520 1523 1524 1524 1524 1525 1525 1525 1525 1525 1526
1551 1551 1550 1550 1549 1548 1548 1548 1547 1547 1546 1546 1546 1546 1546 1545 1545 1544 1544 1544 1543 1542 1541 1541 1540 1539 1539 1539 1539 1538 1538 1537 1536 1536 1535 1535 1534 1534 1533 1533 1532 1532 1532 1531 1531 1531 1530 1530 1530 1530 1530 1531 1531 1531 1531 1531 1531 1531 1530 1530 1531 1530 1530 1530 1530 1530 1531 1531 1531 1531 1530 1530 1530 1530 1528 1520 1516 1519 1521 1522 1523 1523 1523 1523 1523 1524 1525 1525
1552 1551 1551 1550 1549 1549 1548 1548 1548 1547 1547 1546 1546 1546 1546 1545 1545 1544 1544 1544 1543 1542 1541 1541 1540 1539 1539 1539 1538 1538 1537 1537 1536 1536 1535 1535 1534 1534 1533 1532 1532 1532 1531 1531 1530 1530 1529 1529 1529 1529 1530 1530 1530 1530 1531 1531 1531 1530 1529 1529 1530 1530 1530 1530 1530 1530 1530 1530 1531 1531 1530 1529 1530 1530 1525 1516 1515 1516 1517 1519 1520 1521 1521 1521 1522 1522 1524 1525
1552 1552 1551 1551 1550 1549 1549 1548 1548 1547 1547 1546 1546 1546 1545 1545 1545 1544 1544 1543 1542 1541 1541 1540 1540 1539 1539 1538 1538 1538 1537 1536 1536 1536 1535 1535 1534 1534 1533 1532 1532 1531 1531 1530 1530 1529 1529 1529 1529 1529 1529 1529 1530 1530 1531 1531 1530 1529 1530 1530 1530 1530 1530 1530 1529 1530 1530 1530 1530 1530 1530 1529 1530 1531 1523 1515 1515 1515 1515 1516 1517 1519 1519 1520 1521 1521 1523 1524
1552 1552 1551 1551 1550 1550 1549 1548 1548 1547 1547 1546 1546 1545 1545 1545 1544 1544 1543 1543 1542 1541 1541 1540 1539 1539 1539 1538 1538 1537 1536 1536 1536 1535 1535 1534 1534 1533 1533 1532 1531 1531 1530 1530 1530 1529 1529 1529 1529 1529 1529 1529 1530 1530 1531 1530 1530 1530 1530 1530 1530 1530 1530 1529 1529 1529 1530 1529 1529 1529 1529 1528 1530 1529 1520 1514 1515 1515 1515 1515 1516 1517 1518 1520 1520 1521 1522 1523
1552 1552 1552 1551 1551 1550 1549 1549 1548 1547 1547 1546 1546 1545 1544 1544 1543 1543 1543 1542 1541 1541 1540 1540 1539 1539 1539 1538 1537 1537 1536 1536 1535 1535 1535 1534 1534 1533 1532 1532 1531 1530 1530 1530 1529 1529 1529 1529 1529 1529 1529 1529 1530 1530 1530 1530 1531 1530 1531 1531 1531 1531 1529 1527 1528 1528 1529 1529 1528 1530 1528 1524 1526 1523 1514 1514 1515 1515 1515 1515 1515 1516 1517 1519 1520 1521 1522 1523
1552 1552 1551 1551 1551 1550 1549 1549 1548 1547 1546 1546 1545 1545 1544 1543 1543 1542 1542 1542 1541 1540 1540 1539 1539 1538 1538 1537 1537 1536 1536 1536 1535 1535 1534 1534 1533 1533 1532 1532 1531 1530 1530 1530 1529 1529 1529 1528 1528 1529 1529 1529 1530 1530 1530 1531 1531 1531 1532 1532 1531 1531 1527 1524 1526 1527 1528 1528 1527 1530 1528 1519 1518 1516 1512 1514 1515 1514 1515 1514 1515 1516 1517 1519 1520 1521 1522 1523
1552 1552 1551 1551 1551 1550 1549 1549 1548 1547 1546 1546 1545 1544 1543 1543 1542 1542 1541 1541 1541 1540 1540 1539 1539 1538 1538 1537 1537 1536 1536 1536 1535 1535 1534 1533 1533 1532 1532 1531 1531 1530 1529 1529 1529 1529 1529 1528 1528 1528 1529 1529 1530 1530 1531 1532 1531 1532 1533 1533 1536 1533 1524 1523 1526 1526 1527 1528 1527 1529 1530 1520 1513 1512 1512 1513 1513 1513 1513 1513 1515 1516 1517 1518 1519 1521 1522 1523
1552 1552 1551 1551 1550 1550 1549 1548 1547 1547 1546 1545 1544 1543 1543 1542 1542 1541 1541 1541 1540 1540 1540 1539 1538 1538 1538 1537 1536 1536 1536 1535 1535 1534 1533 1533 1532 1531 1531 1530 1530 1529 1529 1529 1529 1529 1528 1528 1528 1528 1529 1529 1530 1531 1532 1533 1533 1534 1532 1531 1537 1535 1526 1524 1525 1525 1525 1526 1527 1528 1528 1522 1513 1510 1511 1511 1512 1513 1512 1512 1514 1515 1517 1517 1519 1521 1522 1523
1552 1552 1551 1551 1550 1550 1549 1548 1547 1546 1545 1544 1543 1542 1542 1541 1541 1540 1540 1540 1540 1540 1539 1539 1538 1538 1538 1537 1536 1536 1535 1535 1534 1534 1533 1532 1531 1531 1530 1529 1529 1529 1529 1528 1528 1528 1528 1528 1529 1529 1529 1529 1531 1531 1533 1534 1532 1535 1534 1529 1531 1533 1528 1525 1523 1524 1524 1524 1526 1526 1524 1519 1512 1509 1510 1511 1511 1512 1511 1511 1513 1514 1516 1517 1518 1521 1522 1523
1552 1552 1551 1551 1550 1549 1548 1547 1547 1546 1545 1543 1542 1541 1541 1540 1540 1540 1539 1539 1539 1539 1538 1538 1538 1537 1537 1537 1536 1536 1535 1535 1534 1533 1533 1532 1531 1530 1530 1529 1528 1528 1528 1528 1528 1528 1528 1528 1529 1529 1529 1530 1532 1532 1534 1533 1528 1531 1535 1531 1529 1530 1529 1525 1522 1523 1525 1525 1524 1525 1524 1519 1511 1508 1510 1511 1511 1511 1510 1510 1512 1514 1514 1516 1518 1520 1521 1522
1552 1552 1551 1551 1550 1549 1548 1547 1547 1546 1544 1543 1541 1541 1540 1540 1540 1539 1539 1538 1538 1537 1538 1538 1537 1538 1538 1536 1536 1536 1535 1534 1534 1533 1533 1532 1531 1530 1529 1528 1528 1527 1527 1527 1527 1527 1527 1528 1529 1530 1530 1531 1531 1531 1532 1530 1526 1527 1530 1529 1528 1530 1530 1526 1523 1523 1524 1525 1524 1525 1523 1518 1512 1508 1508 1510 1510 1509 1509 1510 1512 1513 1514 1516 1519 1520 1521 1522
1552 1552 1551 1551 1550 1549 1548 1547 1547 1545 1544 1542 1541 1540 1539 1539 1539 1539 1539 1538 1537 1537 1538 1538 1537 1538 1538 1537 1536 1536 1534 1534 1533 1533 1532 1531 1531 1529 1529 1528 1527 1527 1527 1527 1526 1527 1527 1528 1529 1530 1529 1528 1528 1529 1527 1526 1527 1527 1527 1528 1528 1527 1527 1525 1523 1523 1524 1525 1524 1523 1520 1517 1513 1508 1507 1509 1508 1507 1507 1509 1511 1512 1514 1517 1519 1520 1521 1523
1553 1552 1551 1551 1550 1549 1548 1547 1546 1545 1544 1542 1541 1540 1540 1539 1539 1538 1538 1538 1538 1538 1538 1538 1538 1538 1538 1537 1536 1536 1534 1533 1533 1533 1532 1531 1530 1529 1528 1528 1527 1527 1527 1527 1527 1527 1527 1529 1529 1528 1526 1525 1527 1528 1527 1527 1528 1528 1528 1529 1529 1529 1527 1523 1523 1524 1524 1524 1520 1520 1520 1517 1511 1507 1507 1507 1505 1505 1506 1509 1511 1512 1515 1517 1520 1521 1522 1524
1553 1552 1551 1551 1550 1549 1548 1547 1547 1545 1544 1542 1541 1540 1540 1540 1540 1540 1539 1538 1538 1539 1538 1538 1538 1538 1537 1537 1536 1535 1534 1533 1533 1532 1532 1531 1530 1529 1528 1527 1527 1527 1527 1527 1527 1527 1528 1528 1526 1525 1525 1526 1527 1528 1527 1527 1527 1527 1528 1529 1529 1530 1526 1522 1524 1524 1524 1524 1519 1519 1520 1514 1509 1508 1507 1504 1503 1505 1506 1508 1511 1513 1516 1519 1520 1522 1524 1526
1553 1552 1552 1551 1550 1549 1549 1548 1547 1546 1544 1543 1541 1540 1541 1541 1541 1541 1540 1539 1539 1539 1539 1538 1538 1538 1538 1537 1536 1535 1534 1533 1532 1532 1531 1530 1529 1528 1527 1527 1528 1527 1527 1527 1527 1528 1528 1526 1525 1526 1527 1527 1527 1527 1527 1526 1527 1528 1529 1530 1529 1529 1527 1523 1524 1524 1524 1523 1518 1518 1518 1512 1510 1510 1507 1504 1504 1507 1508 1509 1512 1514 1517 1520 1522 1524 1525 1527
1553 1552 1552 1551 1550 1550 1549 1548 1547 1546 1545 1543 1542 1541 1542 1541 1541 1541 1540 1540 1539 1539 1539 1538 1538 1538 1537 1537 1536 1535 1534 1533 1532 1531 1531 1529 1528 1528 1527 1528 1528 1527 1528 1527 1527 1529 1527 1524 1526 1528 1527 1526 1526 1527 1527 1527 1528 1528 1529 1530 1527 1527 1528 1523 1522 1524 1523 1522 1519 1518 1517 1514 1513 1510 1508 1508 1507 1509 1512 1513 1515 1517 1519 1522 1524 1526 1527 1528
1553 1553 1552 1551 1551 1550 1549 1548 1547 1546 1544 1543 1542 1542 1542 1541 1541 1541 1540 1540 1540 1539 1539 1539 1538 1538 1538 1537 1536 1535 1534 1533 1533 1532 1531 1529 1528 1528 1527 1528 1528 1527 1528 1528 1529 1528 1526 1525 1528 1528 1526 1526 1526 1526 1527 1527 1527 1528 1527 1527 1525 1525 1527 1525 1525 1524 1521 1521 1520 1518 1514 1513 1515 1513 1512 1514 1512 1513 1516 1516 1519 1522 1523 1525 1526 1527 1528 1529
1554 1553 1552 1551 1551 1550 1549 1548 1547 1546 1545 1544 1543 1542 1542 1541 1541 1540 1540 1540 1541 1540 1539 1539 1539 1538 1538 1537 1536 1534 1533 1533 1533 1532 1531 1530 1529 1528 1528 1528 1527 1527 1529 1530 1529 1527 1525 1527 1528 1527 1527 1527 1526 1526 1527 1527 1528 1528 1525 1525 1525 1525 1526 1526 1526 1524 1520 1518 1519 1518 1515 1514 1517 1517 1516 1517 1517 1520 1521 1521 1524 1526 1527 1527 1527 1529 1530 1531
1554 1553 1552 1551 1551 1550 1549 1548 1547 1546 1545 1544 1543 1542 1542 1541 1540 1540 1540 1542 1543 1541 1540 1539 1539 1538 1537 1537 1535 1533 1533 1532 1532 1532 1531 1530 1529 1528 1528 1528 1528 1528 1529 1529 1528 1527 1527 1528 1528 1527 1527 1527 1527 1526 1527 1529 1529 1527 1524 1525 1527 1526 1526 1526 1526 1525 1521 1518 1518 1521 1521 1518 1517 1516 1518 1521 1522 1525 1525 1525 1528 1529 1529 1529 1529 1531 1531 1532
1554 1553 1552 1551 1551 1550 1549 1548 1548 1547 1545 1544 1543 1542 1541 1540 1540 1539 1540 1544 1547 1543 1541 1540 1539 1539 1538 1536 1535 1533 1533 1533 1532 1532 1531 1530 1529 1528 1528 1529 1528 1528 1529 1529 1527 1526 1527 1527 1527 1528 1527 1527 1527 1526 1528 1530 1528 1525 1525 1527 1527 1526 1526 1526 1527 1526 1524 1522 1521 1521 1522 1521 1518 1517 1521 1525 1525 1528 1529 1530 1532 1531 1531 1531 1531 1532 1532 1532
1554 1553 1552 1551 1551 1550 1549 1549 1548 1547 1546 1545 1543 1542 1541 1540 1540 1539 1540 1549 1550 1544 1542 1541 1539 1539 1538 1536 1535 1534 1535 1534 1533 1532 1531 1531 1530 1528 1528 1529 1529 1529 1529 1530 1528 1526 1526 1526 1526 1527 1527 1527 1526 1526 1528 1530 1526 1524 1526 1528 1527 1527 1527 1527 1528 1527 1529 1527 1518 1517 1522 1519 1516 1519 1524 1526 1527 1530 1532 1532 1534 1534 1533 1533 1532 1532 1533 1533
1554 1553 1552 1551 1550 1550 1549 1548 1547 1547 1546 1545 1543 1541 1540 1539 1539 1539 1542 1550 1549 1543 1543 1541 1539 1539 1538 1536 1536 1535 1535 1535 1534 1533 1532 1531 1530 1529 1529 1529 1530 1529 1529 1530 1529 1526 1526 1527 1526 1527 1527 1526 1526 1527 1529 1529 1526 1525 1527 1528 1528 1529 1529 1528 1529 1528 1530 1527 1513 1513 1519 1514 1512 1519 1524 1526 1528 1530 1532 1534 1536 1535 1535 1534 1533 1533 1533 1532
1554 1553 1552 1551 1550 1549 1549 1548 1547 1546 1545 1544 1542 1541 1540 1539 1539 1542 1548 1552 1547 1544 1543 1541 1540 1541 1540 1538 1536 1536 1536 1535 1535 1534 1531 1531 1530 1529 1529 1529 1529 1530 1530 1530 1528 1526 1527 1527 1527 1527 1526 1526 1527 1527 1528 1528 1527 1526 1527 1526 1525 1528 1529 1530 1532 1531 1527 1520 1512 1515 1520 1515 1512 1517 1521 1524 1526 1528 1531 1535 1537 1536 1535 1534 1534 1534 1533 1533
1554 1553 1552 1551 1550 1549 1548 1547 1546 1545 1544 1543 1542 1540 1539 1540 1541 1548 1554 1552 1547 1546 1543 1542 1544 1544 1543 1544 1541 1538 1538 1536 1536 1534 1533 1533 1532 1530 1529 1529 1530 1529 1528 1528 1526 1526 1527 1526 1527 1527 1527 1527 1527 1527 1527 1528 1528 1527 1527 1526 1522 1523 1526 1527 1529 1529 1522 1513 1512 1518 1521 1516 1513 1517 1522 1525 1527 1529 1531 1534 1537 1536 1535 1535 1534 1534 1534 1534
1553 1553 1552 1551 1550 1548 1547 1546 1545 1544 1543 1542 1541 1539 1539 1542 1546 1553 1555 1550 1548 1549 1547 1547 1547 1546 1547 1548 1545 1543 1542 1538 1536 1536 1537 1537 1537 1537 1536 1537 1537 1532 1530 1532 1531 1526 1523 1526 1529 1528 1527 1528 1527 1525 1526 1527 1528 1527 1527 1527 1524 1522 1522 1520 1520 1524 1519 1511 1514 1519 1517 1514 1517 1523 1527 1529 1529 1531 1533 1534 1536 1536 1536 1536 1536 1535 1535 1535
1553 1552 1551 1550 1549 1548 1547 1546 1544 1543 1542 1541 1540 1539 1541 1546 1552 1558 1557 1551 1552 1552 1551 1551 1550 1549 1549 1546 1545 1547 1544 1540 1538 1537 1538 1538 1539 1541 1542 1543 1543 1538 1535 1537 1537 1531 1524 1525 1528 1528 1526 1528 1528 1525 1525 1525 1526 1527 1526 1526 1526 1525 1525 1521 1520 1523 1518 1512 1516 1520 1515 1514 1522 1530 1531 1532 1533 1533 1534 1535 1536 1536 1537 1537 1537 1536 1536 1535
1552 1552 1551 1550 1549 1548 1546 1545 1544 1543 1542 1541 1540 1540 1543 1550 1557 1560 1558 1556 1556 1554 1553 1554 1551 1550 1549 1547 1548 1548 1544 1541 1541 1539 1538 1538 1539 1540 1542 1543 1544 1543 1540 1539 1539 1538 1533 1526 1525 1526 1526 1528 1529 1527 1528 1527 1527 1528 1528 1529 1526 1524 1526 1523 1520 1520 1517 1516 1520 1519 1515 1515 1524 1535 1537 1536 1536 1535 1536 1537 1537 1537 1538 1538 1537 1537 1536 1536
1552 1551 1550 1549 1548 1548 1546 1545 1544 1543 1542 1541 1541 1543 1549 1556 1560 1561 1560 1560 1559 1556 1554 1554 1552 1548 1547 1549 1550 1550 1547 1543 1543 1542 1539 1540 1542 1543 1544 1545 1546 1546 1543 1541 1540 1542 1540 1530 1526 1529 1528 1529 1529 1529 1531 1529 1526 1529 1530 1529 1526 1524 1525 1524 1524 1525 1526 1527 1523 1518 1521 1527 1533 1539 1541 1538 1537 1537 1538 1538 1538 1539 1539 1538 1538 1537 1537 1537
1551 1551 1550 1549 1549 1547 1546 1545 1544 1543 1542 1541 1543 1550 1557 1561 1562 1562 1562 1562 1562 1560 1556 1553 1551 1550 1549 1550 1549 1550 1549 1547 1546 1544 1541 1543 1546 1547 1548 1548 1549 1548 1545 1545 1544 1543 1541 1531 1527 1530 1529 1530 1530 1529 1531 1529 1525 1528 1529 1526 1526 1528 1527 1524 1527 1531 1532 1530 1522 1518 1527 1537 1539 1540 1541 1540 1539 1539 1539 1539 1539 1540 1539 1539 1538 1538 1538 1538
1551 1550 1550 1549 1548 1547 1546 1545 1544 1543 1542 1541 1546 1557 1563 1564 1564 1564 1564 1563 1562 1563 1560 1554 1552 1553 1554 1552 1550 1550 1550 1548 1548 1547 1544 1545 1546 1547 1549 1548 1549 1549 1548 1548 1545 1545 1544 1535 1528 1530 1529 1528 1531 1529 1529 1530 1528 1527 1527 1526 1527 1529 1528 1529 1530 1529 1530 1530 1522 1518 1527 1533 1534 1536 1538 1540 1541 1540 1540 1540 1540 1540 1539 1539 1539 1539 1539 1538
1550 1550 1550 1549 1548 1547 1546 1545 1544 1544 1542 1544 1553 1561 1564 1564 1565 1565 1565 1564 1563 1563 1561 1558 1556 1556 1557 1556 1554 1554 1552 1549 1549 1550 1548 1546 1546 1547 1549 1548 1548 1549 1548 1548 1545 1545 1547 1539 1529 1531 1531 1528 1530 1529 1526 1528 1530 1528 1527 1528 1528 1526 1525 1529 1531 1526 1527 1531 1525 1521 1527 1530 1530 1533 1537 1540 1541 1541 1540 1540 1540 1540 1540 1540 1540 1540 1539 1538
1550 1550 1550 1549 1548 1547 1546 1545 1545 1543 1543 1550 1558 1562 1564 1565 1565 1565 1565 1565 1565 1563 1562 1562 1562 1559 1559 1559 1558 1557 1555 1553 1553 1553 1550 1547 1547 1547 1549 1549 1548 1548 1548 1548 1547 1546 1547 1543 1532 1530 1532 1529 1528 1527 1524 1525 1529 1529 1529 1529 1528 1528 1526 1526 1528 1527 1526 1529 1529 1524 1522 1526 1533 1536 1538 1540 1541 1540 1540 1541 1541 1541 1541 1541 1540 1539 1538 1537
1550 1550 1550 1550 1548 1547 1547 1546 1545 1545 1548 1556 1562 1563 1565 1566 1565 1566 1566 1565 1565 1564 1563 1565 1565 1562 1561 1561 1561 1560 1558 1555 1555 1553 1551 1549 1547 1546 1549 1550 1548 1548 1548 1547 1548 1547 1546 1545 1536 1529 1530 1529 1525 1524 1525 1525 1527 1527 1527 1527 1526 1527 1528 1527 1528 1530 1527 1525 1529 1526 1521 1528 1538 1538 1538 1540 1540 1541 1541 1541 1542 1542 1541 1541 1540 1539 1537 1536
1550 1550 1551 1550 1549 1548 1547 1546 1548 1550 1555 1561 1563 1564 1566 1567 1566 1567 1566 1565 1566 1565 1565 1565 1565 1564 1563 1562 1561 1561 1559 1556 1555 1554 1551 1549 1548 1546 1548 1551 1549 1549 1548 1546 1547 1547 1546 1546 1541 1534 1532 1528 1523 1525 1527 1527 1527 1527 1525 1525 1526 1527 1528 1529 1529 1532 1531 1527 1530 1529 1524 1531 1540 1538 1538 1540 1540 1541 1542 1542 1542 1542 1541 1541 1539 1538 1537 1536
1551 1552 1553 1550 1549 1549 1547 1549 1554 1556 1559 1563 1565 1566 1567 1567 1567 1567 1566 1565 1565 1564 1564 1565 1564 1565 1564 1563 1562 1562 1560 1557 1554 1553 1550 1549 1549 1547 1548 1550 1550 1549 1549 1547 1548 1548 1547 1548 1546 1540 1534 1528 1525 1527 1529 1528 1529 1529 1527 1527 1529 1529 1528 1528 1527 1530 1532 1531 1534 1534 1528 1533 1540 1539 1539 1541 1541 1542 1542 1542 1543 1542 1541 1540 1539 1538 1536 1535
1552 1553 1554 1551 1550 1549 1548 1553 1558 1561 1563 1566 1567 1567 1567 1567 1567 1566 1566 1565 1565 1565 1564 1564 1565 1564 1563 1564 1563 1562 1560 1556 1552 1551 1550 1549 1549 1549 1549 1550 1550 1549 1550 1548 1548 1548 1547 1548 1547 1540 1533 1528 1526 1527 1529 1530 1529 1528 1528 1529 1530 1529 1529 1529 1530 1533 1532 1529 1531 1531 1529 1535 1541 1540 1540 1541 1542 1542 1542 1542 1542 1541 1540 1539 1538 1536 1535 1533
1554 1554 1554 1552 1551 1549 1550 1556 1560 1563 1566 1567 1567 1567 1567 1567 1567 1567 1567 1566 1566 1566 1565 1565 1565 1564 1563 1564 1563 1561 1560 1556 1552 1551 1551 1550 1549 1549 1550 1550 1550 1550 1550 1548 1549 1548 1546 1546 1546 1542 1536 1531 1528 1527 1527 1528 1529 1528 1529 1531 1531 1531 1532 1533 1535 1537 1534 1530 1530 1530 1530 1535 1540 1540 1541 1542 1542 1542 1542 1542 1542 1541 1539 1538 1537 1535 1533 1531
1554 1555 1555 1555 1552 1550 1553 1559 1561 1563 1567 1567 1566 1568 1568 1567 1568 1567 1567 1567 1567 1566 1566 1565 1565 1564 1564 1564 1562 1561 1560 1557 1554 1552 1552 1551 1549 1549 1550 1550 1550 1551 1550 1550 1550 1549 1548 1548 1547 1545 1544 1541 1536 1533 1531 1530 1533 1531 1529 1531 1533 1532 1532 1532 1532 1533 1532 1534 1535 1532 1532 1536 1539 1541 1542 1542 1543 1543 1543 1543 1542 1540 1538 1536 1535 1533 1531 1528
1554 1556 1557 1557 1555 1554 1557 1561 1561 1562 1565 1566 1566 1569 1569 1568 1568 1568 1567 1567 1567 1566 1566 1565 1565 1564 1564 1564 1562 1560 1559 1559 1557 1554 1553 1552 1549 1550 1551 1550 1550 1551 1550 1551 1550 1550 1551 1551 1548 1545 1544 1543 1538 1535 1534 1536 1538 1534 1531 1533 1533 1534 1534 1532 1531 1531 1532 1536 1535 1534 1537 1539 1538 1541 1543 1542 1543 1543 1542 1541 1539 1537 1536 1534 1532 1530 1528 1525
1556 1559 1561 1560 1558 1559 1561 1562 1562 1563 1565 1565 1567 1570 1571 1569 1568 1568 1567 1567 1567 1567 1566 1566 1565 1565 1564 1564 1564 1562 1560 1559 1558 1555 1555 1553 1551 1551 1551 1551 1551 1551 1551 1551 1551 1551 1552 1550 1548 1547 1542 1540 1540 1538 1536 1539 1539 1537 1538 1538 1534 1534 1534 1531 1532 1535 1535 1536 1535 1536 1540 1539 1537 1540 1543 1541 1541 1542 1540 1538 1537 1535 1533 1532 1530 1528 1525 1523
1557 1561 1563 1562 1562 1564 1565 1564 1565 1566 1566 1567 1569 1571 1571 1570 1569 1568 1568 1567 1567 1567 1566 1565 1565 1566 1566 1566 1566 1563 1560 1558 1556 1555 1555 1555 1554 1553 1551 1551 1552 1551 1552 1552 1551 1552 1552 1549 1550 1550 1544 1540 1541 1540 1538 1540 1540 1541 1544 1542 1538 1537 1536 1534 1538 1540 1539 1537 1536 1537 1539 1537 1537 1541 1542 1541 1541 1540 1538 1537 1536 1533 1531 1529 1527 1525 1523 1521
1559 1561 1563 1563 1564 1567 1567 1567 1567 1567 1567 1568 1570 1572 1572 1571 1570 1570 1570 1568 1567 1567 1566 1564 1564 1566 1567 1567 1566 1564 1562 1559 1557 1556 1556 1556 1557 1556 1553 1551 1552 1552 1552 1552 1552 1553 1552 1550 1552 1552 1547 1541 1538 1538 1538 1539 1539 1542 1546 1544 1542 1541 1539 1539 1541 1540 1539 1538 1536 1537 1538 1537 1539 1543 1542 1541 1540 1538 1537 1535 1533 1531 1529 1527 1525 1523 1521 1519
1560 1561 1563 1563 1565 1567 1568 1568 1568 1567 1568 1570 1570 1572 1574 1573 1571 1571 1571 1569 1566 1566 1567 1566 1565 1566 1566 1567 1566 1564 1562 1561 1560 1559 1558 1558 1558 1558 1556 1554 1553 1554 1553 1553 1554 1553 1552 1552 1553 1553 1549 1541 1537 1536 1536 1536 1538 1542 1545 1545 1544 1542 1541 1541 1541 1541 1540 1539 1537 1538 1537 1536 1539 1542 1541 1540 1539 1537 1535 1533 1531 1530 1528 1526 1524 1522 1520 1518
1560 1561 1562 1563 1566 1569 1568 1568 1569 1568 1570 1572 1572 1573 1574 1573 1573 1572 1570 1569 1568 1567 1567 1567 1567 1566 1565 1565 1565 1562 1561 1561 1560 1559 1558 1559 1559 1558 1557 1556 1556 1556 1555 1555 1555 1554 1554 1554 1553 1553 1551 1543 1537 1536 1535 1536 1539 1541 1544 1546 1545 1544 1544 1544 1542 1541 1541 1541 1540 1539 1538 1538 1540 1540 1539 1539 1538 1536 1535 1533 1531 1529 1527 1526 1524 1523 1520 1518
1561 1562 1563 1563 1566 1570 1570 1570 1570 1569 1572 1575 1575 1574 1574 1573 1573 1573 1569 1567 1568 1568 1568 1568 1567 1567 1565 1563 1562 1561 1560 1559 1558 1558 1557 1557 1557 1557 1557 1557 1557 1557 1557 1557 1557 1557 1557 1555 1554 1555 1553 1543 1538 1538 1538 1537 1535 1536 1543 1549 1547 1546 1546 1545 1542 1541 1542 1543 1543 1541 1540 1541 1542 1540 1539 1538 1537 1536 1535 1533 1530 1528 1526 1526 1524 1521 1519 1517